TimeCDT,TemperatureF,Dew PointF,Humidity,Sea Level PressureIn,VisibilityMPH,Wind Direction,Wind SpeedMPH,Gust SpeedMPH,PrecipitationIn,Events,Conditions,WindDirDegrees,DateUTC
12:55 AM,71.4,70.0,95,30.03,10.0,Calm,Calm,-,N/A,,Clear,0,2012-10-06 05:55:00
1:55 AM,71.8,70.0,94,30.02,10.0,Calm,Calm,-,N/A,,Clear,0,2012-10-06 06:55:00
2:55 AM,69.3,68.4,97,30.01,10.0,Calm,Calm,-,N/A,,Clear,0,2012-10-06 07:55:00
3:55 AM,68.9,68.2,98,30.00,10.0,Calm,Calm,-,N/A,,Clear,0,2012-10-06 08:55:00
4:55 AM,68.2,66.4,94,30.01,10.0,ESE,3.5,-,N/A,,Clear,120,2012-10-06 09:55:00
5:55 AM,68.0,66.6,95,30.02,10.0,Calm,Calm,-,N/A,,Clear,0,2012-10-06 10:55:00
6:55 AM,67.3,66.7,98,30.02,10.0,Calm,Calm,-,N/A,,Clear,0,2012-10-06 11:55:00
7:55 AM,69.8,66.0,88,30.03,10.0,Calm,Calm,-,N/A,,Clear,0,2012-10-06 12:55:00
8:55 AM,72.0,66.2,82,30.04,10.0,Calm,Calm,-,N/A,,Clear,0,2012-10-06 13:55:00
9:55 AM,76.6,66.7,71,30.04,10.0,Calm,Calm,-,N/A,,Clear,0,2012-10-06 14:55:00
10:55 AM,80.8,65.5,59,30.03,10.0,Calm,Calm,-,N/A,,Clear,0,2012-10-06 15:55:00
11:55 AM,83.3,62.8,50,30.01,10.0,Calm,Calm,-,N/A,,Clear,0,2012-10-06 16:55:00
12:55 PM,86.0,63.5,47,29.99,10.0,Variable,3.5,-,N/A,,Partly Cloudy,0,2012-10-06 17:55:00
1:55 PM,86.0,66.0,51,29.96,10.0,Variable,5.8,-,N/A,,Partly Cloudy,0,2012-10-06 18:55:00
2:55 PM,85.6,66.4,52,29.94,10.0,South,8.1,-,N/A,,Partly Cloudy,190,2012-10-06 19:55:00
3:55 PM,84.0,65.8,54,29.94,10.0,SSW,5.8,-,N/A,,Partly Cloudy,200,2012-10-06 20:55:00
4:55 PM,83.5,65.7,55,29.94,10.0,SW,5.8,-,N/A,,Clear,230,2012-10-06 21:55:00
5:55 PM,81.0,67.3,63,29.94,10.0,SW,4.6,-,N/A,,Partly Cloudy,230,2012-10-06 22:55:00
6:55 PM,77.7,67.3,70,29.96,10.0,Calm,Calm,-,N/A,,Scattered Clouds,0,2012-10-06 23:55:00
7:55 PM,77.5,68.7,74,29.99,10.0,Variable,5.8,-,N/A,,Mostly Cloudy,0,2012-10-07 00:55:00
8:55 PM,75.0,68.4,80,30.00,10.0,Calm,Calm,-,N/A,,Clear,0,2012-10-07 01:55:00
9:55 PM,72.9,67.1,82,30.01,10.0,NNE,6.9,-,N/A,,Clear,20,2012-10-07 02:55:00
10:55 PM,70.9,66.0,85,30.01,10.0,NNE,6.9,-,N/A,,Clear,20,2012-10-07 03:55:00
11:55 PM,69.3,65.3,87,30.01,10.0,NNE,5.8,-,N/A,,Clear,30,2012-10-07 04:55:00